Location: Izdebno
(52.6670°N, 16.2170°E)
Time: 12:02:06
(UTC+02:00)

Vanguard 2 - Pass Details

Date: 31 January 2023
Orbit: 553 x 2927 km, 32.9° (Epoch: 26 March)

Event Time Altitude Azimuth Distance (km) Brightness Sun altitude
Rises 21:07:29 0° 200° (SSW) 5,690 11.9 -40.1°
Enters shadow 21:11:42 - 188° (S) 5,105 11.5 -40.6°
Reaches altitude 10° 21:12:17 10° 186° (S) 5,039 - -40.7°
Maximum altitude 21:22:27 22° 144° (SE) 4,639 - -42.0°
Drops below altitude 10° 21:33:53 10° 104° (ESE) 5,761 - -43.5°
Sets 21:39:53 0° 91° (E) 6,714 - -44.2°
